Location: Foligno
(42.9600°N, 12.7050°E)
Time: 10:58:26
(UTC+02:00)

ISS - Pass Details

Date: 14 May 2021
Orbit: 417 x 422 km, 51.6° (Epoch: 15 May)

Event Time Altitude Azimuth Distance (km) Brightness Sun altitude
Rises 21:12:22 0° 196° (SSW) 2,344 -0.2 -8.3°
Reaches altitude 10° 21:14:57 10° 175° (S) 1,487 -1.4 -8.7°
Maximum altitude 21:17:11 17° 133° (SE) 1,145 -2.2 -9.0°
Drops below altitude 10° 21:19:26 10° 91° (E) 1,495 -1.4 -9.3°
Enters shadow 21:21:43 - 71° (ENE) 2,246 -0.4 -9.7°
